EW2270 Weather Reports


time (UTC)temp
C
wind
direction
speed
KPH
gust
KPH
rain 1hr
cm
rain 24hr
cm
rain mn
cm
humidity
%
barometer
mb
20260902014506 25 296 3.2 4.8 0.00 0.00 0.00 34 1003.8
20260902013005 25 314 3.2 6.4 0.00 0.00 0.00 34 1003.6
20260902011504 25 320 1.6 8.0 0.00 0.00 0.00 34 1003.6
20260902010006 26 315 3.2 8.0 0.00 0.00 0.00 34 1003.6
20260902004503 26 291 4.8 9.7 0.00 0.00 0.00 33 1003.6
20260902003004 26 326 4.8 12.9 0.00 0.00 0.00 33 1003.4
20260902001501 26 288 6.4 11.3 0.00 0.00 0.00 32 1003.5
20260902000104 26 293 4.8 12.9 0.00 0.00 0.00 32 1003.5
20260901234600 26 299 3.2 11.3 0.00 0.00 0.00 32 1003.5
20260901233059 26 307 1.6 12.9 0.00 0.00 0.00 32 1003.5
20260901231557 26 333 9.7 16.1 0.00 0.00 0.00 33 1003.6
20260901230104 26 345 3.2 16.1 0.00 0.00 0.00 32 1003.8
20260901224554 26 288 6.4 19.3 0.00 0.00 0.00 33 1003.8
20260901223103 26 343 4.8 20.9 0.00 0.00 0.00 33 1004.0
20260901221547 25 255 6.4 14.5 0.00 0.00 0.00 35 1004.2
20260901220105 25 333 6.4 11.3 0.00 0.00 0.00 36 1004.3
20260901214543 25 307 8.0 14.5 0.00 0.00 0.00 37 1004.4
20260901213046 25 39 0.0 8.0 0.00 0.00 0.00 38 1004.6
20260901211539 25 244 0.0 6.4 0.00 0.00 0.00 38 1004.7
20260901210038 24 301 3.2 9.7 0.00 0.00 0.00 39 1004.7
20260901204539 24 250 4.8 9.7 0.00 0.00 0.00 39 1005.2
20260901203037 23 207 8.0 12.9 0.00 0.00 0.00 37 1005.4
20260901201530 23 242 4.8 16.1 0.00 0.00 0.00 38 1005.5
20260901200029 23 292 6.4 11.3 0.00 0.00 0.00 38 1005.6
20260901194525 22 312 0.0 14.5 0.00 0.00 0.00 44 1005.9
20260901193030 21 262 14.5 24.1 0.00 0.00 0.00 45 1006.0
20260901191522 21 294 12.9 16.1 0.00 0.00 0.00 40 1005.7
20260901190019 21 293 8.0 25.7 0.00 0.00 0.00 40 1005.5
20260901184532 21 6 3.2 11.3 0.00 0.00 0.00 41 1006.3
20260901183018 21 319 8.0 12.9 0.00 0.00 0.00 39 1006.1
20260901181521 21 322 4.8 8.0 0.00 0.00 0.00 39 1006.5
20260901180015 20 1 3.2 8.0 0.00 0.00 0.00 38 1006.6
20260901174534 20 46 6.4 12.9 0.00 0.00 0.00 39 1006.0
20260901173008 19 79 4.8 8.0 0.00 0.00 0.00 40 1006.2
20260901171505 19 41 0.0 8.0 0.00 0.00 0.00 42 1006.6
20260901170003 18 46 0.0 3.2 0.00 0.00 0.00 41 1006.9
20260901164503 18 338 1.6 4.8 0.00 0.00 0.00 42 1006.5
20260901163101 18 249 4.8 9.7 0.00 0.00 0.00 45 1006.5
20260901161614 18 7 6.4 9.7 0.00 0.00 0.00 42 1005.8
20260901160115 18 25 1.6 6.4 0.00 0.00 0.00 42 1006.1
20260901154558 17 349 3.2 4.8 0.00 0.00 0.00 44 1006.1
20260901153110 16 118 0.0 6.4 0.00 0.00 0.00 47 1006.3
20260901151558 13 102 3.2 4.8 0.00 0.00 0.00 53 1006.5
20260901150051 13 257 0.0 0.0 0.00 0.00 0.00 55 1006.6
20260901144550 12 257 0.0 4.8 0.00 0.00 0.00 58 1006.3
20260901143102 12 133 0.0 1.6 0.00 0.00 0.00 56 1006.0
20260901141547 12 133 0.0 1.6 0.00 0.00 0.00 57 1005.9
20260901140050 11 133 0.0 1.6 0.00 0.00 0.00 57 1005.8
20260901134545 11 139 0.0 4.8 0.00 0.00 0.00 56 1005.5
20260901133044 11 238 0.0 4.8 0.00 0.00 0.00 56 1005.5
20260901131545 12 141 0.0 3.2 0.00 0.00 0.00 56 1005.5
20260901130041 12 141 0.0 1.6 0.00 0.00 0.00 56 1005.2
20260901124540 11 141 0.0 0.0 0.00 0.00 0.00 56 1005.4
20260901123047 11 141 0.0 0.0 0.00 0.00 0.00 58 1005.2
20260901121543 11 141 0.0 1.6 0.00 0.00 0.00 56 1005.2
20260901120046 11 141 0.0 1.6 0.00 0.00 0.00 56 1005.3
20260901114541 12 141 0.0 1.6 0.00 0.00 0.00 55 1005.2
20260901113036 12 141 0.0 1.6 0.00 0.00 0.00 55 1005.2
20260901111531 12 141 0.0 3.2 0.00 0.00 0.00 55 1005.2
20260901110026 14 141 0.0 3.2 0.00 0.00 0.00 50 1005.2
20260901104525 14 141 0.0 0.0 0.00 0.00 0.00 48 1005.4
20260901103023 14 141 0.0 0.0 0.00 0.00 0.00 49 1005.6
20260901101523 14 141 0.0 1.6 0.00 0.00 0.00 50 1005.7
20260901100021 13 142 0.0 1.6 0.00 0.00 0.00 50 1005.7
20260901094520 15 142 0.0 6.4 0.00 0.00 0.00 48 1005.8
20260901093021 15 165 1.6 6.4 0.00 0.00 0.00 49 1005.9
20260901091519 15 156 4.8 9.7 0.00 0.00 0.00 47 1006.0
20260901090017 14 134 3.2 8.0 0.00 0.00 0.00 47 1005.9
20260901084513 15 141 3.2 6.4 0.00 0.00 0.00 45 1006.1
20260901083013 15 133 3.2 6.4 0.00 0.00 0.00 44 1006.1
20260901081511 15 162 4.8 8.0 0.00 0.00 0.00 42 1006.1
20260901080110 15 155 3.2 6.4 0.00 0.00 0.00 43 1006.0
20260901074508 15 153 3.2 8.0 0.00 0.00 0.00 42 1005.9
20260901073009 16 165 1.6 11.3 0.00 0.00 0.00 40 1005.9
20260901071505 16 199 6.4 9.7 0.00 0.00 0.00 40 1005.8
20260901070001 16 132 1.6 8.0 0.00 0.00 0.00 40 1005.7
20260901064601 16 149 4.8 8.0 0.00 0.00 0.00 39 1005.8
20260901063110 16 145 1.6 6.4 0.00 0.00 0.00 40 1005.7
20260901061627 16 184 3.2 8.0 0.00 0.00 0.00 39 1005.6
20260901060101 17 155 3.2 9.7 0.00 0.00 0.00 38 1005.8
20260901054559 17 150 6.4 9.7 0.00 0.00 0.00 38 1005.8
20260901053109 17 148 1.6 8.0 0.00 0.00 0.00 38 1006.0
20260901051558 17 160 6.4 8.0 0.00 0.00 0.00 37 1006.0
20260901050057 17 134 3.2 9.7 0.00 0.00 0.00 36 1006.0
20260901044602 17 136 6.4 11.3 0.00 0.00 0.00 36 1006.0
20260901043059 18 134 8.0 11.3 0.00 0.00 0.00 35 1005.9
20260901041556 17 143 6.4 9.7 0.00 0.00 0.00 35 1005.9
20260901040055 18 132 3.2 6.4 0.00 0.00 0.00 32 1005.9
20260901034555 20 158 0.0 3.2 0.00 0.00 0.00 31 1005.8
20260901033053 20 131 0.0 3.2 0.00 0.00 0.00 31 1005.7
20260901031558 21 240 0.0 1.6 0.00 0.00 0.00 29 1005.5
20260901030053 22 240 0.0 0.0 0.00 0.00 0.00 28 1005.4
20260901024554 23 94 1.6 4.8 0.00 0.00 0.00 27 1005.3
20260901023051 24 339 1.6 4.8 0.00 0.00 0.00 25 1005.4
20260901021551 26 6 3.2 9.7 0.00 0.00 0.00 23 1005.5
20260901020106 27 17 6.4 14.5 0.00 0.00 0.00 22 1005.6